Location: Newark
(40.7066°N, 111.8219°W)
Time: 17:53:53
(UTC+00:00)

Transit 2A Rocket - Pass Details

Date: 28 November 2019
Orbit: 594 x 909 km, 66.7° (Epoch: 15 December)

Event Time Altitude Azimuth Distance (km) Brightness Sun altitude
Rises 09:56:11 0° 349° (NNW) 2,848 - -50.9°
Reaches altitude 10° 10:00:32 10° 30° (NNE) 1,974 - -50.1°
Maximum altitude 10:01:22 10° 41° (NE) 1,952 - -49.9°
Drops below altitude 10° 10:02:13 10° 52° (NE) 1,991 - -49.8°
Sets 10:06:43 0° 93° (E) 2,963 - -49.0°
Exits shadow 10:06:46 - 94° (E) 2,980 8.7 -48.9°
